Martinsville, VA

1:10 AM EDT on July 28, 2017 (GMT -0400)
Blue Ridge

Weather History for KMTV - December, 2012

Change the Weather History Date:

Thursday, December 13, 2012

  Actual Average (KINT) Record (KINT)
Temperature  
Mean Temperature 38 °F -  
Max Temperature 53 °F 49 °F 70 °F (1985)
Min Temperature 24 °F 32 °F 12 °F (1988)
Degree Days  
Heating Degree Days 26    
Moisture  
Dew Point 22 °F    
Average Humidity 51    
Maximum Humidity 86    
Minimum Humidity 22    
Precipitation  
Precipitation 0.00 in - - ()
Sea Level Pressure  
Sea Level Pressure 30.38 in    
Wind  
Wind Speed 4 mph (NNE)    
Max Wind Speed 9 mph    
Max Gust Speed 16 mph    
Visibility 10 miles    
Events      
Averages and records for this station are not official NWS values.
T = Trace of Precipitation, MM = Missing Value Source: NWS Daily Summary

Daily Weather History Graph

Daily Weather History Graph

Search for Another Location

Airport or City:

Trip Planner

Search our weather history database for the weather conditions in past years. The results will help you decide how hot, cold, wet, or windy it might be!

Date:

Astronomy

Dec. 13, 2012 Rise Set
Actual Time 7:24 AM EST 5:05 PM EST
Civil Twilight 6:55 AM EST 5:33 PM EST
Nautical Twilight 6:22 AM EST 6:06 PM EST
Astronomical Twilight 5:51 AM EST 6:37 PM EST
Moon 7:31 AM EST (12/13) 5:45 PM EST (12/13)
Length of Visible Light 10h 38m
Length of Day
9h 41m
New Moon, 0% of the Moon is Illuminated
Dec 13
New Moon
Dec 20
First Quarter
Dec 28
Full
Jan 4
Last Quarter
Jan 11
New

Hourly Weather History & Observations

Time (EST) Temp. Windchill Dew Point Humidity Pressure Visibility Wind Dir Wind Speed Gust Speed Precip Events Conditions
12:15 AM 41.0 °F 37.1 °F 26.6 °F 57% 30.35 in 10.0 mi North 5.8 mph - N/A   Scattered Clouds
12:35 AM 39.2 °F 37.0 °F 26.6 °F 61% 30.35 in 10.0 mi North 3.5 mph - N/A   Scattered Clouds
12:55 AM 39.2 °F 37.0 °F 26.6 °F 61% 30.35 in 10.0 mi North 3.5 mph - N/A   Mostly Cloudy
1:15 AM 39.2 °F - 26.6 °F 61% 30.36 in 10.0 mi Calm Calm - N/A   Overcast
1:35 AM 39.2 °F 35.9 °F 26.6 °F 61% 30.36 in 10.0 mi NNW 4.6 mph - N/A   Overcast
1:55 AM 39.2 °F 35.9 °F 26.6 °F 61% 30.35 in 10.0 mi North 4.6 mph - N/A   Overcast
2:15 AM 39.2 °F 37.0 °F 26.6 °F 61% 30.36 in 10.0 mi North 3.5 mph - N/A   Overcast
2:35 AM 39.2 °F 37.0 °F 26.6 °F 61% 30.36 in 10.0 mi NNE 3.5 mph - N/A   Overcast
2:55 AM 39.2 °F 37.0 °F 26.6 °F 61% 30.37 in 10.0 mi North 3.5 mph - N/A   Overcast
3:15 AM 39.2 °F 35.9 °F 26.6 °F 61% 30.37 in 10.0 mi North 4.6 mph - N/A   Overcast
3:35 AM 39.2 °F 35.9 °F 26.6 °F 61% 30.37 in 10.0 mi North 4.6 mph - N/A   Overcast
3:55 AM 39.2 °F - 26.6 °F 61% 30.36 in 10.0 mi Calm Calm - N/A   Overcast
4:15 AM 39.2 °F 35.0 °F 26.6 °F 61% 30.36 in 10.0 mi North 5.8 mph - N/A   Overcast
4:35 AM 39.2 °F 35.9 °F 26.6 °F 61% 30.35 in 10.0 mi North 4.6 mph - N/A   Overcast
4:55 AM 39.2 °F 35.9 °F 26.6 °F 61% 30.36 in 10.0 mi North 4.6 mph - N/A   Overcast
5:15 AM 39.2 °F 37.0 °F 26.6 °F 61% 30.37 in 10.0 mi NNE 3.5 mph - N/A   Overcast
5:35 AM 39.2 °F 35.9 °F 26.6 °F 61% 30.37 in 10.0 mi NNE 4.6 mph - N/A   Overcast
5:55 AM 39.2 °F 35.0 °F 26.6 °F 61% 30.38 in 10.0 mi North 5.8 mph - N/A   Overcast
6:15 AM 39.2 °F 35.9 °F 24.8 °F 56% 30.38 in 10.0 mi North 4.6 mph - N/A   Overcast
6:35 AM 39.2 °F 35.9 °F 24.8 °F 56% 30.39 in 10.0 mi NE 4.6 mph - N/A   Overcast
7:15 AM 39.2 °F 34.2 °F 24.8 °F 56% 30.41 in 10.0 mi North 6.9 mph - N/A   Overcast
7:35 AM 39.2 °F 33.0 °F 21.2 °F 49% 30.41 in 10.0 mi North 9.2 mph - N/A   Overcast
7:55 AM 39.2 °F 34.2 °F 21.2 °F 49% 30.41 in 10.0 mi North 6.9 mph - N/A   Overcast
8:15 AM 39.2 °F 35.9 °F 21.2 °F 49% 30.41 in 10.0 mi NE 4.6 mph - N/A   Overcast
8:35 AM 39.2 °F 34.2 °F 21.2 °F 49% 30.42 in 10.0 mi NE 6.9 mph - N/A   Overcast
8:55 AM 41.0 °F 37.1 °F 21.2 °F 45% 30.42 in 10.0 mi NNE 5.8 mph - N/A   Overcast
9:15 AM 41.0 °F 35.8 °F 21.2 °F 45% 30.43 in 10.0 mi NE 8.1 mph 16.1 mph N/A   Scattered Clouds
9:35 AM 42.8 °F 37.5 °F 21.2 °F 42% 30.44 in 10.0 mi NNE 9.2 mph - N/A   Clear
9:55 AM 42.8 °F 38.0 °F 21.2 °F 42% 30.45 in 10.0 mi North 8.1 mph - N/A   Clear
10:15 AM 44.6 °F 39.7 °F 21.2 °F 39% 30.44 in 10.0 mi NNE 9.2 mph - N/A   Clear
10:35 AM 44.6 °F 40.7 °F 21.2 °F 39% 30.44 in 10.0 mi North 6.9 mph - N/A   Clear
10:55 AM 46.4 °F 43.5 °F 21.2 °F 37% 30.43 in 10.0 mi North 5.8 mph - N/A   Clear
11:15 AM 46.4 °F 43.5 °F 21.2 °F 37% 30.43 in 10.0 mi North 5.8 mph - N/A   Clear
11:35 AM 46.4 °F 43.5 °F 19.4 °F 34% 30.42 in 10.0 mi North 5.8 mph - N/A   Clear
11:55 AM 48.2 °F - 19.4 °F 32% 30.41 in 10.0 mi North 6.9 mph - N/A   Clear
12:15 PM 48.2 °F - 19.4 °F 32% 30.40 in 10.0 mi ENE 6.9 mph - N/A   Clear
12:35 PM 50.0 °F - 19.4 °F 30% 30.39 in 10.0 mi North 4.6 mph - N/A   Clear
12:55 PM 50.0 °F - 15.8 °F 26% 30.39 in 10.0 mi NE 6.9 mph - N/A   Clear
1:15 PM 51.8 °F - 15.8 °F 24% 30.38 in 10.0 mi ENE 4.6 mph - N/A   Clear
1:35 PM 51.8 °F - 17.6 °F 26% 30.38 in 10.0 mi North 4.6 mph - N/A   Clear
1:55 PM 51.8 °F - 17.6 °F 26% 30.37 in 10.0 mi Calm Calm - N/A   Clear
2:15 PM 51.8 °F - 15.8 °F 24% 30.37 in 10.0 mi Calm Calm - N/A   Clear
2:35 PM 53.6 °F - 15.8 °F 22% 30.36 in 10.0 mi ENE 4.6 mph - N/A   Clear
2:55 PM 51.8 °F - 15.8 °F 24% 30.36 in 10.0 mi NNE 3.5 mph - N/A   Clear
3:15 PM 51.8 °F - 15.8 °F 24% 30.36 in 10.0 mi North 3.5 mph - N/A   Clear
3:35 PM 51.8 °F - 14.0 °F 22% 30.36 in 10.0 mi Calm Calm - N/A   Clear
3:55 PM 51.8 °F - 15.8 °F 24% 30.35 in 10.0 mi ENE 3.5 mph - N/A   Clear
4:15 PM 51.8 °F - 14.0 °F 22% 30.35 in 10.0 mi Calm Calm - N/A   Clear
4:35 PM 50.0 °F - 15.8 °F 26% 30.34 in 10.0 mi Calm Calm - N/A   Clear
4:55 PM 46.4 °F - 17.6 °F 32% 30.35 in 10.0 mi Calm Calm - N/A   Clear
5:15 PM 41.0 °F - 21.2 °F 45% 30.36 in 10.0 mi Calm Calm - N/A   Clear
5:35 PM 41.0 °F - 21.2 °F 45% 30.36 in 10.0 mi Calm Calm - N/A   Clear
8:15 PM 30.2 °F - 21.2 °F 69% 30.38 in 10.0 mi Calm Calm - N/A   Clear
8:35 PM 28.4 °F - 21.2 °F 74% 30.38 in 10.0 mi Calm Calm - N/A   Clear
8:55 PM 30.2 °F - 21.2 °F 69% 30.38 in 10.0 mi Calm Calm - N/A   Clear
9:15 PM 28.4 °F - 21.2 °F 74% 30.37 in 10.0 mi Calm Calm - N/A   Clear
9:35 PM 28.4 °F - 21.2 °F 74% 30.37 in 10.0 mi Calm Calm - N/A   Clear
9:55 PM 26.6 °F - 21.2 °F 80% 30.38 in 10.0 mi Calm Calm - N/A   Clear
10:15 PM 26.6 °F - 21.2 °F 80% 30.38 in 10.0 mi Calm Calm - N/A   Clear
10:35 PM 26.6 °F - 21.2 °F 80% 30.38 in 10.0 mi Calm Calm - N/A   Clear
10:55 PM 26.6 °F - 21.2 °F 80% 30.37 in 10.0 mi Calm Calm - N/A   Clear
11:15 PM 24.8 °F - 21.2 °F 86% 30.37 in 10.0 mi Calm Calm - N/A   Clear
11:35 PM 24.8 °F - 19.4 °F 80% 30.37 in 10.0 mi Calm Calm - N/A   Clear
11:55 PM 24.8 °F - 19.4 °F 80% 30.37 in 10.0 mi Calm Calm - N/A   Clear